Frankfort, KY

6:55 PM EDT on May 23, 2017 (GMT -0400)
Capital City

Weather History for KFFT - July, 2013

Change the Weather History Date:

Wednesday, July 31, 2013

  Actual Average Record
Temperature  
Mean Temperature 70 °F 76 °F  
Max Temperature 76 °F 87 °F 102 °F (1999)
Min Temperature 64 °F 65 °F 52 °F (1932)
Degree Days  
Heating Degree Days 0 0  
Month to date heating degree days 1 0  
Since 1 June heating degree days 3 10  
Since 1 July heating degree days 1 0  
Cooling Degree Days 5 11  
Month to date cooling degree days 284 350  
Year to date cooling degree days 644 685  
Since 1 June cooling degree days 525 586  
Growing Degree Days 20 (Base 50)    
Moisture  
Dew Point 66 °F    
Average Humidity 90    
Maximum Humidity 100    
Minimum Humidity 79    
Precipitation  
Precipitation 0.26 in 0.12 in 2.63 in (1938)
Month to date precipitation 7.72 4.39  
Year to date precipitation 32.90 27.95  
Sea Level Pressure  
Sea Level Pressure 30.05 in    
Wind  
Wind Speed 5 mph (South)    
Max Wind Speed 12 mph    
Max Gust Speed 21 mph    
Visibility 9 miles    
Events Rain    
T = Trace of Precipitation, MM = Missing Value Source: NWS Daily Summary

Daily Weather History Graph

Daily Weather History Graph

Search for Another Location

Airport or City:

Trip Planner

Search our weather history database for the weather conditions in past years. The results will help you decide how hot, cold, wet, or windy it might be!

Date:

Astronomy

Jul. 31, 2013 Rise Set
Actual Time 6:41 AM EDT 8:49 PM EDT
Civil Twilight 6:12 AM EDT 9:19 PM EDT
Nautical Twilight 5:36 AM EDT 9:54 PM EDT
Astronomical Twilight 4:57 AM EDT 10:33 PM EDT
Moon 1:36 AM EDT (7/31) 4:05 PM EDT (7/31)
Length of Visible Light 15h 06m
Length of Day
14h 08m
Waning Crescent, 32% of the Moon is Illuminated
Jul 31
Waning Crescent
Aug 6
New
Aug 14
First Quarter
Aug 20
Full
Aug 28
Last Quarter

Hourly Weather History & Observations

Time (EDT) Temp. Dew Point Humidity Pressure Visibility Wind Dir Wind Speed Gust Speed Precip Events Conditions
12:53 AM 66.9 °F 63.0 °F 87% 30.13 in 10.0 mi South 8.1 mph - 0.01 in   Overcast
1:53 AM 64.0 °F 62.1 °F 93% 30.13 in 4.0 mi South 8.1 mph - 0.02 in Rain Rain
3:18 AM 64.4 °F 62.6 °F 94% 30.13 in 2.5 mi South 6.9 mph - 0.03 in Rain Light Rain
3:53 AM 64.0 °F 64.0 °F 100% 30.11 in 2.5 mi South 8.1 mph - 0.09 in Rain Light Rain
4:27 AM 64.4 °F 64.4 °F 100% 30.11 in 3.0 mi SSE 9.2 mph - 0.05 in Rain Light Rain
4:39 AM 64.4 °F 62.6 °F 94% 30.11 in 4.0 mi South 11.5 mph 20.7 mph 0.05 in Rain Light Rain
4:53 AM 64.0 °F 63.0 °F 96% 30.09 in 4.0 mi SSE 10.4 mph - 0.06 in Rain Light Rain
5:53 AM 64.0 °F 63.0 °F 96% 30.09 in 9.0 mi SSE 8.1 mph - 0.03 in   Overcast
6:53 AM 64.0 °F 63.0 °F 96% 30.07 in 10.0 mi SE 6.9 mph - N/A   Overcast
7:53 AM 64.0 °F 63.0 °F 96% 30.07 in 10.0 mi SE 4.6 mph - 0.01 in   Overcast
8:33 AM 66.2 °F 64.4 °F 94% 30.08 in 10.0 mi SE 4.6 mph - N/A   Overcast
8:53 AM 66.0 °F 64.0 °F 93% 30.07 in 10.0 mi SSE 5.8 mph - N/A   Overcast
9:45 AM 68.0 °F 64.4 °F 88% 30.09 in 10.0 mi South 4.6 mph - N/A   Overcast
9:53 AM 68.0 °F 64.9 °F 90% 30.07 in 10.0 mi South 5.8 mph - N/A   Overcast
10:03 AM 68.0 °F 64.4 °F 88% 30.09 in 10.0 mi South 4.6 mph - N/A   Overcast
10:53 AM 70.0 °F 66.0 °F 87% 30.07 in 10.0 mi South 5.8 mph - N/A   Overcast
11:53 AM 71.1 °F 66.9 °F 87% 30.05 in 10.0 mi WSW 4.6 mph - N/A   Overcast
12:42 PM 73.4 °F 66.2 °F 78% 30.05 in 10.0 mi SW 4.6 mph - N/A   Overcast
12:53 PM 73.0 °F 66.9 °F 81% 30.03 in 10.0 mi SSW 5.8 mph - N/A   Overcast
1:53 PM 71.1 °F 66.9 °F 87% 30.03 in 10.0 mi SSW 4.6 mph - N/A   Overcast
2:53 PM 73.0 °F 68.0 °F 84% 30.02 in 10.0 mi South 4.6 mph - N/A   Overcast
3:53 PM 75.9 °F 68.0 °F 76% 30.00 in 10.0 mi Calm Calm - N/A   Overcast
4:53 PM 72.0 °F 66.9 °F 84% 29.99 in 10.0 mi South 4.6 mph - N/A   Overcast
5:53 PM 72.0 °F 68.0 °F 87% 29.98 in 10.0 mi ESE 3.5 mph - N/A   Overcast
6:53 PM 72.0 °F 68.0 °F 87% 29.96 in 8.0 mi Calm Calm - N/A   Overcast
7:53 PM 72.0 °F 68.0 °F 87% 29.96 in 10.0 mi SSW 3.5 mph - N/A   Overcast
8:43 PM 71.6 °F 68.0 °F 88% 29.99 in 10.0 mi SSW 3.5 mph - N/A   Overcast
8:53 PM 71.1 °F 68.0 °F 90% 29.97 in 10.0 mi SSW 3.5 mph - N/A   Overcast
9:01 PM 71.6 °F 68.0 °F 88% 29.99 in 10.0 mi Calm Calm - N/A   Overcast
9:53 PM 71.1 °F 68.0 °F 90% 29.98 in 10.0 mi SSW 4.6 mph - N/A   Overcast
10:53 PM 69.1 °F 66.9 °F 93% 29.97 in 10.0 mi Calm Calm - N/A   Scattered Clouds
11:53 PM 68.0 °F 66.9 °F 96% 29.98 in 8.0 mi Calm Calm - N/A   Clear